Location: Gesvres
(49.0440°N, 2.8518°E)
Time: 07:58:09
(UTC+00:00)

NOAA 6 - Pass Details

Date: 28 January 2023
Orbit: 770 x 786 km, 98.7° (Epoch: 22 March)

Event Time Altitude Azimuth Distance (km) Brightness Sun altitude
Rises 17:44:44 0° 171° (S) 3,244 7.3 -10.9°
Reaches altitude 10° 17:47:02 10° 173° (S) 2,323 6.6 -11.3°
Maximum altitude 17:52:09 69° 257° (WSW) 838 4.4 -12.1°
Drops below altitude 10° 17:57:19 10° 341° (NNW) 2,351 6.6 -12.9°
Sets 17:59:41 0° 344° (NNW) 3,286 7.3 -13.3°
